Location: Izdebno
(52.6670°N, 16.2170°E)
Time: 18:14:40
(UTC+01:00)

Transit 2A - Pass Details

Date: 30 January 2023
Orbit: 591 x 964 km, 66.7° (Epoch: 21 March)

Event Time Altitude Azimuth Distance (km) Brightness Sun altitude
Rises 23:12:13 0° 309° (NW) 3,298 - -53.2°
Reaches altitude 10° 23:15:06 10° 324° (NW) 2,435 - -53.3°
Maximum altitude 23:19:30 23° 15° (NNE) 1,798 - -53.6°
Drops below altitude 10° 23:24:11 10° 66° (ENE) 2,610 - -53.8°
Sets 23:27:24 0° 81° (E) 3,597 - -54.0°
